Beaumont, TX

7:12 AM CDT on April 25, 2017 (GMT -0500)
Southeast Texas Regional

Weather History for KBPT - November, 2010

Change the Weather History Date:

Friday, November 12, 2010

  Actual Average Record
Temperature  
Mean Temperature 70 °F 63 °F  
Max Temperature 78 °F 73 °F 85 °F (1964)
Min Temperature 62 °F 53 °F 29 °F (1950)
Degree Days  
Heating Degree Days 0 4  
Month to date heating degree days 51 42  
Since 1 July heating degree days 60 76  
Cooling Degree Days 5 2  
Month to date cooling degree days 26 36  
Year to date cooling degree days 3089 2827  
Growing Degree Days 20 (Base 50)    
Moisture  
Dew Point 64 °F    
Average Humidity 82    
Maximum Humidity 100    
Minimum Humidity 64    
Precipitation  
Precipitation 0.00 in 0.15 in 4.87 in (1929)
Month to date precipitation 2.54 1.82  
Year to date precipitation 39.96 52.60  
Snow  
Snow 0.00 in 0.00 in 0.00 in ()
Month to date snowfall 0.0 0.0  
Since 1 July snowfall 0.0 0.0  
Since 1 September snowfall 0.0 0.0  
Snow Depth 0.00 in    
Sea Level Pressure  
Sea Level Pressure 30.17 in    
Wind  
Wind Speed 8 mph (ESE)    
Max Wind Speed 18 mph    
Max Gust Speed 23 mph    
Visibility 8 miles    
Events      
T = Trace of Precipitation, MM = Missing Value Source: NWS Daily Summary

Daily Weather History Graph

Daily Weather History Graph

Search for Another Location

Airport or City:

Trip Planner

Search our weather history database for the weather conditions in past years. The results will help you decide how hot, cold, wet, or windy it might be!

Date:

Astronomy

Nov. 12, 2010 Rise Set
Actual Time 6:38 AM CST 5:21 PM CST
Civil Twilight 6:13 AM CST 5:46 PM CST
Nautical Twilight 5:44 AM CST 6:15 PM CST
Astronomical Twilight 5:16 AM CST 6:43 PM CST
Moon 12:11 PM CST (11/12) 11:24 PM CST (11/12)
Length of Visible Light 11h 33m
Length of Day
10h 42m
Waxing Crescent, 41% of the Moon is Illuminated
Nov 12
Waxing Crescent
Nov 13
First Quarter
Nov 21
Full
Nov 28
Last Quarter
Dec 5
New

Hourly Weather History & Observations

Time (CST) Temp. Dew Point Humidity Pressure Visibility Wind Dir Wind Speed Gust Speed Precip Events Conditions
12:53 AM 64.9 °F 63.0 °F 93% 30.19 in 8.0 mi ESE 6.9 mph - N/A   Clear
1:53 AM 63.0 °F 62.1 °F 97% 30.19 in 6.0 mi East 3.5 mph - N/A   Clear
2:53 AM 63.0 °F 62.1 °F 97% 30.19 in 4.0 mi East 4.6 mph - N/A   Clear
3:53 AM 64.0 °F 63.0 °F 96% 30.18 in 3.0 mi East 5.8 mph - N/A   Clear
4:04 AM 64.4 °F 62.6 °F 94% 30.18 in 2.5 mi East 5.8 mph - N/A   Clear
4:17 AM 64.4 °F 62.6 °F 94% 30.17 in 3.0 mi East 5.8 mph - N/A   Clear
4:53 AM 63.0 °F 62.1 °F 97% 30.17 in 3.0 mi East 5.8 mph - N/A   Clear
5:53 AM 63.0 °F 62.1 °F 97% 30.17 in 7.0 mi East 4.6 mph - N/A   Partly Cloudy
6:53 AM 63.0 °F 61.0 °F 93% 30.18 in 6.0 mi East 6.9 mph - N/A   Clear
7:53 AM 66.0 °F 64.0 °F 93% 30.19 in 6.0 mi East 9.2 mph - N/A   Clear
8:27 AM 68.0 °F 64.4 °F 88% 30.20 in 8.0 mi ESE 11.5 mph - N/A   Mostly Cloudy
8:53 AM 69.1 °F 66.0 °F 90% 30.20 in 7.0 mi ESE 13.8 mph - N/A   Mostly Cloudy
9:53 AM 70.0 °F 66.9 °F 90% 30.20 in 8.0 mi ESE 12.7 mph - N/A   Mostly Cloudy
10:34 AM 73.4 °F 66.2 °F 78% 30.20 in 10.0 mi ESE 11.5 mph - N/A   Scattered Clouds
10:38 AM 73.4 °F 68.0 °F 83% 30.20 in 10.0 mi ESE 12.7 mph - N/A   Mostly Cloudy
10:45 AM 73.4 °F 68.0 °F 83% 30.20 in 10.0 mi ESE 12.7 mph - N/A   Partly Cloudy
10:53 AM 75.0 °F 68.0 °F 79% 30.19 in 10.0 mi ESE 13.8 mph - N/A   Mostly Cloudy
11:53 AM 77.0 °F 64.9 °F 66% 30.18 in 10.0 mi SE 11.5 mph 20.7 mph N/A   Scattered Clouds
12:00 PM 75.2 °F 64.4 °F 69% 30.18 in 10.0 mi SE 13.8 mph - N/A   Mostly Cloudy
12:53 PM 77.0 °F 64.0 °F 64% 30.16 in 10.0 mi SE 13.8 mph 19.6 mph N/A   Mostly Cloudy
1:53 PM 77.0 °F 64.0 °F 64% 30.14 in 10.0 mi SE 10.4 mph 19.6 mph N/A   Scattered Clouds
2:53 PM 77.0 °F 64.9 °F 66% 30.14 in 10.0 mi SSE 12.7 mph - N/A   Partly Cloudy
3:53 PM 75.0 °F 64.0 °F 69% 30.14 in 10.0 mi SE 8.1 mph - N/A   Partly Cloudy
4:53 PM 72.0 °F 64.9 °F 78% 30.14 in 10.0 mi ESE 8.1 mph - N/A   Clear
5:53 PM 69.1 °F 66.0 °F 90% 30.15 in 10.0 mi ESE 9.2 mph - N/A   Clear
6:53 PM 66.9 °F 64.9 °F 93% 30.16 in 9.0 mi SE 6.9 mph - N/A   Clear
7:53 PM 68.0 °F 64.4 °F 88% 30.15 in 9.0 mi SE 9.2 mph - N/A   Clear
8:53 PM 66.9 °F 64.9 °F 93% 30.16 in 10.0 mi SE 9.2 mph - N/A   Clear
9:53 PM 66.0 °F 64.0 °F 93% 30.16 in 9.0 mi ESE 6.9 mph - N/A   Clear
10:53 PM 66.0 °F 64.9 °F 96% 30.15 in 8.0 mi ESE 4.6 mph - N/A   Clear
11:53 PM 66.9 °F 66.0 °F 97% 30.14 in 7.0 mi SE 4.6 mph - N/A   Overcast